Regional Weather Roundup
Issued by NWS

Home | Current Version | Previous Version | Graphics & Text | Print | Product List | Glossary On
Versions: 1 2 3 4 5 6 7 8 9 10 11 12 13 14 15 16 17 18 19 20 21 22 23 24 25 26 27 28
000
ASUS45 KBOU 111210
RWRCO

WEATHER ROUNDUP FOR COLORADO
NATIONAL WEATHER SERVICE DENVER/BOULDER CO
500 AM MST MON DEC 11 2017

NOTE: "FAIR" INDICATES FEW OR NO CLOUDS BELOW 12000 FEET WITH NO
SIGNIFICANT WEATHER AND/OR OBSTRUCTIONS TO VISIBILITY.

COZ001>005-013-030-031-111300-
...NORTHWEST COLORADO...

CITY           SKY/WX    TMP DP  RH WIND       PRES   REMARKS
CRAIG          FAIR       3  -2  79 CALM      30.55F
HAYDEN         FAIR      15   6  67 E12       30.54F WCI   2
MEEKER         FAIR      11   2  67 CALM      30.54F
RABBIT EARS PA FAIR      23   1  39 W10G17    30.53F WCI  12
STEAMBOAT SPGS FAIR      13   7  76 CALM      30.55S
WALDEN         FAIR       1  -6  71 SE8       30.52R WCI -12
$$

COZ006>008-011-111300-
...WEST CENTRAL VALLEYS...

CITY           SKY/WX    TMP DP  RH WIND       PRES   REMARKS
GRAND JUNCTION FAIR      20   3  48 SE3       30.54F
MONTROSE       FAIR      15   0  51 S10       30.58F WCI   2
EAGLE          FAIR       6   1  80 CALM      30.66S
RIFLE          FAIR      15   2  56 CALM      30.58S
DELTA          FAIR      16  -3  44 N6        30.58S WCI   7
NUCLA          FAIR      18 -11  27 SE10      30.56S WCI   6
$$

COZ017>023-064>068-111300-
...SOUTHWEST COLORADO...

CITY           SKY/WX    TMP DP  RH WIND       PRES   REMARKS
DURANGO        FAIR      10  -2  58 CALM      30.49R
CORTEZ         FAIR      10   0  63 NE8       30.52S WCI  -2
PAGOSA SPRINGS FAIR      19  -4  35 CALM      30.50R
TELLURIDE      FAIR      28  -5  23 CALM      30.56S
WOLF CREEK PAS FAIR      28  -9  19 NW7       30.62F WCI  21
$$

COZ009-010-012-014-032>034-037-058>063-111300-
...CENTRAL COLORADO...

CITY           SKY/WX    TMP DP  RH WIND       PRES   REMARKS
ASPEN          FAIR      12   1  61 S6        30.55S WCI   3
BUENA VISTA    FAIR      23  -4  30 CALM      30.48S
COPPER MTN     NOT AVBL
BERTHOUD PASS  FAIR      16   5  62 NW21      30.55S WCI  -2
COTTONWOOD PAS FAIR      39 -22   6 W14       30.49S
GUNNISON       FAIR       5  -4  66 CALM      30.62R
KREMMLING      CLOUDY     1  -4  78 CALM      30.65R HAZE
LEADVILLE      FAIR      19 -12  24 NE9       30.53S WCI   8
MONARCH PASS   FAIR      27 -15  15 W10       30.66F WCI  17
SALIDA         FAIR      25  -4  27 W5        30.56S WCI  20
SUNLIGHT       FAIR      28 -18  12 NW9       30.62S WCI  20
WILKERSON PASS FAIR      32  -6  19 N15G26    30.53F WCI  22
$$

COZ069>075-111300-
...SAN LUIS VALLEY/SANGRE DE CRISTO MOUNTAINS...

CITY           SKY/WX    TMP DP  RH WIND       PRES   REMARKS
ALAMOSA        FAIR      -1  -8  72 CALM      30.50R
DEL NORTE      FAIR      22 -11  23 W10       30.50S WCI  11
LA VETA PASS   FAIR      27 -11  18 SW13        N/A  WCI  16
SAGUACHE       FAIR      23  -9  23 N8        30.50R WCI  14
$$

COZ035-036-038>040-111300-
...NORTHERN COLORADO FRONT RANGE...

CITY           SKY/WX    TMP DP  RH WIND       PRES   REMARKS
DENVER INTL AP FAIR      37  -3  18 SW15      30.31S
DMNS CITY PARK NOT AVBL
AURORA         CLEAR     35  -3  19 S12       30.32F WCI  27
FRONT RANGE AP FAIR      39  -2  17 S8        30.32S
ERIE MUNI ARPT FAIR      23   9  54 SW3       30.35F
BOULDER MUN AP FAIR      45   0  15 SW8       30.28F
CENTENNIAL     FAIR      32   0  25 S7        30.33F WCI  26
BROOMFIELD     FAIR      37  -2  18 SW8       30.31F
FORT COLLINS   FAIR      26  12  55 NE5       30.29F WCI  20
LONGMONT       FAIR      24  10  55 CALM      30.31S
$$

COZ041-046-047-076>085-087-088-111300-
...PIKES PEAK/PALMER DIVIDE AND SOUTHERN FOOTHILLS...

CITY           SKY/WX    TMP DP  RH WIND       PRES   REMARKS
COLO. SPRINGS  FAIR      44  -5  12 NW13      30.34F
A. F. ACADEMY  FAIR      24  -4  29 N12       30.35F WCI  13
SCHRIEVER AFB  FAIR      41  -8  12 N13       30.34S
CHEYENNE MTN   FAIR      50 -11   7 NW10      30.30F
ELLICOTT         N/A    N/A N/A N/A NE6       30.32S
FALCON         FAIR      39 -10  12 NW10      30.37S
FORT CARSON    FAIR      35  -1  21 NW12      30.31F WCI  26
LIMON          FAIR      16  -1  47 N3        30.32F
MONUMENT HILL  FAIR      28  -4  24 W8        30.38S WCI  20
CANON CITY     FAIR      41  -2  16 W22       30.33S
WALSENBURG     FAIR      39  -4  16 SW14      30.35R
TRINIDAD       FAIR      32   1  26 W15       30.33F WCI  22
$$

COZ042>045-048>051-090-091-111300-
...NORTHEAST COLORADO...

CITY           SKY/WX    TMP DP  RH WIND       PRES   REMARKS
GREELEY ARPT   FAIR      13   5  70 CALM      30.31F
AKRON          FAIR      30  -1  26 W10       30.28S WCI  21
BURLINGTON     FAIR      29   3  33 NW13      30.27F WCI  19
WRAY           FAIR      32   5  32 NW12      30.25S WCI  23
YUMA           FAIR      32   3  29 W13       30.26S WCI  22
STERLING       FAIR      19   7  58 S6        30.28R WCI  11
HOLYOKE        FAIR      34   9  35 W12       30.24S WCI  25
FORT MORGAN    FAIR      22   3  44 W10       30.30S WCI  11
$$

COZ086-089-092>099-111300-
...SOUTHEAST COLORADO...

CITY           SKY/WX    TMP DP  RH WIND       PRES   REMARKS
PUEBLO         FAIR      20   0  41 CALM      30.31S
LA JUNTA       FAIR      27   3  35 W12       30.31R WCI  17
LAMAR          FAIR      19   2  47 W8        30.29R WCI   9
SPRINGFIELD      N/A     29   4  34 NW14      30.26F WCI  18
$$




USA.gov is the U.S. government's official web portal to all federal, state and local government web resources and services.